Time,TemperatureF,DewpointF,PressureIn,WindDirection,WindDirectionDegrees,WindSpeedMPH,WindSpeedGustMPH,Humidity,HourlyPrecipIn,Conditions,Clouds,dailyrainin,SoftwareType,DateUTC
2013-09-02 00:11:00,70.0,70.0,-100.00,NE,53,-999.0,-999.0,100,-99.99,,,-99.99,,2013-09-02 07:11:00,
2013-09-02 00:42:00,69.0,69.0,-100.00,NE,51,-999.0,0.0,100,-99.99,,,0.00,,2013-09-02 07:42:00,
2013-09-02 00:52:00,69.0,69.0,-100.00,NE,51,-999.0,0.0,100,-99.99,,,0.00,,2013-09-02 07:52:00,
2013-09-02 01:02:00,69.0,69.0,-100.00,NE,51,-999.0,0.0,100,-99.99,,,0.00,,2013-09-02 08:02:00,
2013-09-02 01:42:00,69.0,69.0,29.82,West,274,-999.0,0.0,100,-99.99,,,0.00,,2013-09-02 08:42:00,
2013-09-02 02:12:00,68.0,68.0,-100.00,West,272,-999.0,0.0,100,-99.99,,,-99.99,,2013-09-02 09:12:00,
2013-09-02 02:22:00,68.0,68.0,-100.00,West,272,-999.0,0.0,100,-99.99,,,-99.99,,2013-09-02 09:22:00,
2013-09-02 02:44:00,68.0,-99.9,-100.00,West,272,-999.0,0.0,-999,-99.99,,,0.00,,2013-09-02 09:44:00,
2013-09-02 02:54:00,68.0,-99.9,-100.00,West,272,-999.0,0.0,-999,-99.99,,,0.00,,2013-09-02 09:54:00,
2013-09-02 03:03:00,68.0,-99.9,-100.00,West,272,-999.0,0.0,-999,-99.99,,,0.00,,2013-09-02 10:03:00,
2013-09-02 03:42:00,67.0,67.0,-100.00,WNW,286,-999.0,-999.0,100,-99.99,,,0.00,,2013-09-02 10:42:00,
2013-09-02 04:11:00,67.0,67.0,-100.00,WNW,286,-999.0,0.0,100,-99.99,,,-99.99,,2013-09-02 11:11:00,
2013-09-02 04:42:00,67.0,67.0,-100.00,WNW,286,-999.0,-999.0,100,-99.99,,,0.00,,2013-09-02 11:42:00,
2013-09-02 05:12:00,68.0,-99.9,-100.00,NNE,31,-999.0,0.0,-999,-99.99,,,-99.99,,2013-09-02 12:12:00,
2013-09-02 05:22:00,68.0,-99.9,-100.00,NNE,31,-999.0,0.0,-999,-99.99,,,-99.99,,2013-09-02 12:22:00,
2013-09-02 05:43:00,68.0,-99.9,-100.00,NNE,32,-999.0,0.0,-999,-99.99,,,0.00,,2013-09-02 12:43:00,
2013-09-02 05:52:00,67.0,-99.9,-100.00,ENE,61,-999.0,0.0,-999,-99.99,,,0.00,,2013-09-02 12:52:00,
2013-09-02 06:02:00,67.0,-99.9,-100.00,ENE,61,-999.0,0.0,-999,-99.99,,,-99.99,,2013-09-02 13:02:00,
2013-09-02 06:11:00,67.0,-99.9,-100.00,ENE,61,-999.0,0.0,-999,-99.99,,,-99.99,,2013-09-02 13:11:00,
2013-09-02 06:22:00,67.0,-99.9,-100.00,ENE,61,-999.0,0.0,1,-99.99,,,-99.99,,2013-09-02 13:22:00,
2013-09-02 06:42:00,67.0,67.0,-100.00,ENE,61,-999.0,0.0,100,-99.99,,,0.00,,2013-09-02 13:42:00,
2013-09-02 07:11:00,67.0,67.0,-100.00,ENE,61,-999.0,0.0,100,-99.99,,,-99.99,,2013-09-02 14:11:00,
2013-09-02 07:22:00,67.0,67.0,-100.00,ENE,61,-999.0,0.0,100,-99.99,,,-99.99,,2013-09-02 14:22:00,
2013-09-02 07:43:00,68.0,68.0,-100.00,North,356,-999.0,0.0,100,-99.99,,,0.00,,2013-09-02 14:43:00,
2013-09-02 09:43:00,76.0,73.0,-100.00,West,262,-999.0,0.0,90,-99.99,,,0.00,,2013-09-02 16:43:00,
2013-09-02 10:45:00,77.0,73.0,29.96,SW,230,-999.0,3.0,88,-99.99,,,-99.99,,2013-09-02 17:45:00,
2013-09-02 10:52:00,77.0,73.0,29.96,SW,230,-999.0,3.0,88,-99.99,,,-99.99,,2013-09-02 17:52:00,
2013-09-02 11:02:00,77.0,73.0,29.96,SW,230,-999.0,3.0,88,-99.99,,,-99.99,,2013-09-02 18:02:00,
2013-09-02 11:42:00,76.0,73.0,-100.00,WSW,253,-999.0,9.0,91,-99.99,,,0.00,,2013-09-02 18:42:00,
2013-09-02 11:52:00,76.0,73.0,-100.00,WSW,253,-999.0,9.0,91,-99.99,,,0.00,,2013-09-02 18:52:00,
2013-09-02 12:02:00,76.0,73.0,-100.00,WSW,253,-999.0,9.0,91,-99.99,,,0.00,,2013-09-02 19:02:00,
2013-09-02 13:12:00,76.0,73.0,-100.00,NW,310,-999.0,12.0,91,-99.99,,,-99.99,,2013-09-02 20:12:00,
2013-09-02 13:42:00,78.0,73.0,-100.00,WNW,286,-999.0,11.0,85,-99.99,,,-99.99,,2013-09-02 20:42:00,
2013-09-02 14:12:00,77.0,73.0,-100.00,WSW,255,-999.0,10.0,88,-99.99,,,-99.99,,2013-09-02 21:12:00,
2013-09-02 14:23:00,77.0,73.0,-100.00,WSW,255,-999.0,10.0,88,-99.99,,,-99.99,,2013-09-02 21:23:00,
2013-09-02 15:13:00,77.0,73.0,-100.00,West,270,-999.0,10.0,88,-99.99,,,-99.99,,2013-09-02 22:13:00,
2013-09-02 16:12:00,74.0,72.0,-100.00,WSW,240,-999.0,13.0,94,-99.99,,,-99.99,,2013-09-02 23:12:00,
2013-09-02 16:22:00,74.0,72.0,-100.00,WSW,240,-999.0,13.0,94,-99.99,,,-99.99,,2013-09-02 23:22:00,
2013-09-02 16:42:00,73.0,72.0,-100.00,WNW,301,-999.0,11.0,97,-99.99,,,0.00,,2013-09-02 23:42:00,
2013-09-02 17:11:00,73.0,72.0,-100.00,North,3,-999.0,13.0,98,-99.99,,,-99.99,,2013-09-03 00:11:00,
2013-09-02 18:42:00,70.0,70.0,-100.00,WNW,294,-999.0,11.0,100,-99.99,,,-99.99,,2013-09-03 01:42:00,
2013-09-02 19:12:00,70.0,70.0,29.77,WNW,289,-999.0,-999.0,100,-99.99,,,-99.99,,2013-09-03 02:12:00,
2013-09-02 19:21:00,70.0,70.0,-100.00,WNW,289,-999.0,8.0,100,-99.99,,,-99.99,,2013-09-03 02:21:00,
2013-09-02 19:42:00,71.0,71.0,-100.00,NW,323,-999.0,8.0,100,-99.99,,,0.00,,2013-09-03 02:42:00,
2013-09-02 20:11:00,71.0,71.0,-100.00,SE,129,-999.0,6.0,100,-99.99,,,-99.99,,2013-09-03 03:11:00,
2013-09-02 20:23:00,71.0,71.0,-100.00,SE,129,-999.0,4.0,100,-99.99,,,-99.99,,2013-09-03 03:23:00,
2013-09-02 20:45:00,69.0,69.0,-100.00,WNW,301,-999.0,4.0,100,-99.99,,,0.00,,2013-09-03 03:45:00,
2013-09-02 21:13:00,69.0,69.0,-100.00,WSW,249,-999.0,-999.0,100,-99.99,,,-99.99,,2013-09-03 04:13:00,
2013-09-02 21:24:00,69.0,69.0,-100.00,WSW,249,-999.0,-999.0,100,-99.99,,,-99.99,,2013-09-03 04:24:00,
2013-09-02 21:34:00,69.0,69.0,-100.00,WSW,249,-999.0,-999.0,100,-99.99,,,-99.99,,2013-09-03 04:34:00,
2013-09-02 22:12:00,70.0,70.0,-100.00,North,360,-999.0,4.0,100,-99.99,,,-99.99,,2013-09-03 05:12:00,
2013-09-02 22:43:00,68.0,68.0,29.79,South,177,-999.0,-999.0,100,-99.99,,,-99.99,,2013-09-03 05:43:00,
2013-09-02 22:52:00,68.0,68.0,29.79,South,177,-999.0,-999.0,100,-99.99,,,-99.99,,2013-09-03 05:52:00,
2013-09-02 23:02:00,68.0,68.0,29.79,South,177,-999.0,-999.0,100,-99.99,,,-99.99,,2013-09-03 06:02:00,
2013-09-02 23:43:00,69.0,69.0,-100.00,ESE,121,-999.0,4.0,100,-99.99,,,-99.99,,2013-09-03 06:43:00,